User: anonymous   Login
Location: Kempten
(47.7167°N, 10.3167°E)
Time: 06:56:57
(UTC+02:00)
Language:

Envisat - Orbit

View from above orbital plane
View from above orbital plane
View from above satellite
View from above satellite

Ground track
Ground track

The orbit data is extracted from the following two-line orbital elements,

1 27386U 02009A   21209.84782359  .00000031  00000-0  23851-4 0  9994
2 27386  98.1501 201.7945 0001388  88.9236 334.6359 14.38035259 17029
Epoch (UTC): 28 July 2021 20:20:51
Eccentricity: 0.0001388
inclination: 98.1501°
perigee height: 764 km
apogee height: 766 km
right ascension of ascending node: 201.7945°
argument of perigee: 88.9236°
revolutions per day: 14.38035259
mean anomaly at epoch: 334.6359°
orbit number at epoch: 1702

The dashed part of the orbit path shows where the satellite is in the earth's shadow,  

DLR